Location: Unspecified
(0.0000°N, 0.0000°E)
Time: 07:49:08
(UTC+00:00)

Vela 3B - Visible Passes

Search period start: 17 September 2024 00:00
Search period end: 27 September 2024 00:00
Orbit: 56698 x 166771 km, 41.1° (Epoch: 07 September)

Date Brightness Start Highest point End Pass type
(mag) Time Alt. Az. Time Alt. Az. Time Alt. Az.
17 Sep ? 06:48:18 10° ENE 13:10:41 87° N 19:05:37 10° W visible
18 Sep ? 10:23:56 10° ESE 15:53:00 59° S 21:33:00 10° SW visible
19 Sep ? 13:10:18 10° SE 18:45:11 48° S 00:27:04 10° SW visible
20 Sep ? 17:23:54 10° ESE 00:09:48 72° SSW 07:02:28 10° WNW daylight
22 Sep ? 08:06:21 10° E 13:51:42 78° S 19:39:50 10° WSW visible
23 Sep ? 10:53:23 10° ESE 16:20:56 54° S 21:59:36 10° SW visible
24 Sep ? 13:57:16 10° SE 19:44:09 48° S 01:31:18 10° SW visible
25 Sep ? 19:21:33 10° E 01:33:22 56° NE 16:35:17 10° WNW visible
